When you browse on this site, cookies collect data to enhance your experience and personalize the content and advertising you see.
Visit our Privacy Policy to learn more. By continuing to use the site, you agree to this use of cookies and data.
  • In United Kingdom
  • List of Countries
  • For 7 days
  • Water Temperature
  • Weather Map
  • Weather Widgets
  • user-avatar
    Login

    Hourly Weather Wielkopole

    Today, 18 February, Tuesday

    Time Temperature Precipitation Wind Pressure Humidity
    00:00 +7°C° 0.2 mm 3 mps 743 mmHg 81%
    01:00 +6°C° 0.2 mm 4 mps 743 mmHg 83%
    02:00 +7°C° 0 mm 3 mps 743 mmHg 85%
    03:00 +7°C° 0.5 mm 3 mps 743 mmHg 87%
    04:00 +6°C° 0.5 mm 4 mps 743 mmHg 88%
    05:00 +6°C° 0.5 mm 5 mps 743 mmHg 89%
    06:00 +6°C° 0.1 mm 5 mps 743 mmHg 90%
    07:00 +6°C° 0.1 mm 4 mps 744 mmHg 90%
    08:00 +6°C° 0 mm 4 mps 744 mmHg 89%
    09:00 +6°C° 0 mm 5 mps 744 mmHg 83%
    10:00 +7°C° 0 mm 6 mps 744 mmHg 77%
    11:00 +8°C° 0 mm 6 mps 744 mmHg 71%
    12:00 +8°C° 0.1 mm 7 mps 744 mmHg 68%
    13:00 +8°C° 0.1 mm 7 mps 744 mmHg 64%
    14:00 +7°C° 0.1 mm 8 mps 744 mmHg 60%
    15:00 +8°C° 0 mm 7 mps 744 mmHg 62%
    16:00 +6°C° 0 mm 7 mps 745 mmHg 63%
    17:00 +7°C° 0 mm 6 mps 745 mmHg 64%
    18:00 +5°C° 0 mm 6 mps 745 mmHg 68%
    19:00 +5°C° 0 mm 5 mps 745 mmHg 72%
    20:00 +4°C° 0 mm 4 mps 746 mmHg 76%
    21:00 +4°C° 0 mm 4 mps 746 mmHg 77%
    22:00 +4°C° 0 mm 4 mps 746 mmHg 77%
    23:00 +3°C° 0 mm 4 mps 746 mmHg 77%

    Tomorrow, 19 February, Wednesday

    Time Temperature Precipitation Wind Pressure Humidity
    00:00 +3°C° 0 mm 4 mps 746 mmHg 78%
    01:00 +1°C° 0 mm 4 mps 747 mmHg 79%
    02:00 +1°C° 0 mm 4 mps 747 mmHg 80%
    03:00 +1°C° 0 mm 4 mps 746 mmHg 81%
    04:00 0°C° 0 mm 4 mps 746 mmHg 82%
    05:00 0°C° 0 mm 4 mps 746 mmHg 83%
    06:00 0°C° 0 mm 4 mps 746 mmHg 85%
    07:00 -1°C° 0 mm 4 mps 745 mmHg 87%
    08:00 -1°C° 0 mm 4 mps 745 mmHg 89%
    09:00 0°C° 0 mm 4 mps 745 mmHg 82%
    10:00 +3°C° 0 mm 4 mps 745 mmHg 76%
    11:00 +3°C° 0 mm 5 mps 745 mmHg 69%
    12:00 +3°C° 0 mm 5 mps 744 mmHg 66%
    13:00 +5°C° 0 mm 5 mps 744 mmHg 63%
    14:00 +5°C° 0 mm 5 mps 744 mmHg 60%
    15:00 +5°C° 0 mm 4 mps 743 mmHg 61%
    16:00 +5°C° 0 mm 4 mps 743 mmHg 62%
    17:00 +5°C° 0 mm 3 mps 742 mmHg 63%
    18:00 +4°C° 0 mm 3 mps 742 mmHg 65%
    19:00 +4°C° 0 mm 3 mps 742 mmHg 67%
    20:00 +3°C° 0 mm 3 mps 742 mmHg 70%
    21:00 +3°C° 0 mm 3 mps 742 mmHg 76%
    22:00 +3°C° 0 mm 4 mps 742 mmHg 82%
    23:00 +3°C° 0 mm 4 mps 742 mmHg 88%

    Day after tomorrow, 20 February, Thursday

    Time Temperature Precipitation Wind Pressure Humidity
    00:00 +3°C° 0.2 mm 4 mps 743 mmHg 90%
    01:00 +3°C° 0.2 mm 4 mps 743 mmHg 92%
    02:00 +3°C° 0.2 mm 3 mps 743 mmHg 95%
    03:00 +1°C° 0.3 mm 4 mps 743 mmHg 92%
    04:00 +1°C° 0.3 mm 4 mps 744 mmHg 89%
    05:00 +1°C° 0.3 mm 4 mps 744 mmHg 86%
    06:00 +1°C° 0 mm 4 mps 744 mmHg 86%
    07:00 +1°C° 0 mm 4 mps 745 mmHg 86%
    08:00 0°C° 0 mm 4 mps 745 mmHg 86%
    09:00 +1°C° 0 mm 4 mps 745 mmHg 81%
    10:00 +1°C° 0 mm 4 mps 746 mmHg 77%
    11:00 +3°C° 0 mm 4 mps 746 mmHg 73%
    12:00 +3°C° 0 mm 4 mps 746 mmHg 69%
    13:00 +3°C° 0 mm 4 mps 747 mmHg 66%
    14:00 +3°C° 0 mm 4 mps 747 mmHg 63%
    15:00 +3°C° 0 mm 4 mps 747 mmHg 63%
    16:00 +3°C° 0 mm 3 mps 747 mmHg 63%
    17:00 +3°C° 0 mm 3 mps 747 mmHg 63%
    18:00 +3°C° 0 mm 2 mps 747 mmHg 67%
    19:00 +2°C° 0 mm 2 mps 747 mmHg 71%
    20:00 +3°C° 0 mm 1 mps 747 mmHg 75%
    21:00 +1°C° 0 mm 2 mps 747 mmHg 76%
    22:00 +1°C° 0 mm 2 mps 747 mmHg 78%
    23:00 +1°C° 0 mm 2 mps 747 mmHg 80%

    21 February, Friday

    Time Temperature Precipitation Wind Pressure Humidity
    00:00 -1°C° 0 mm 2 mps 747 mmHg 80%
    01:00 -1°C° 0 mm 3 mps 747 mmHg 81%
    02:00 -1°C° 0 mm 3 mps 746 mmHg 81%
    03:00 -1°C° 0 mm 3 mps 746 mmHg 81%
    04:00 -2°C° 0 mm 4 mps 746 mmHg 81%
    05:00 -2°C° 0 mm 4 mps 745 mmHg 81%
    06:00 -2°C° 0 mm 5 mps 745 mmHg 79%
    07:00 -1°C° 0 mm 5 mps 745 mmHg 78%
    08:00 -1°C° 0 mm 5 mps 744 mmHg 76%
    15:00 0°C° 0.2 mm 7 mps 744 mmHg 88%
    16:00 0°C° 0.2 mm 7 mps 745 mmHg 82%
    17:00 +2°C° 0.2 mm 6 mps 745 mmHg 76%
    18:00 +1°C° 0 mm 6 mps 746 mmHg 76%
    19:00 0°C° 0 mm 5 mps 747 mmHg 77%
    20:00 0°C° 0 mm 5 mps 748 mmHg 77%
    21:00 0°C° 0 mm 5 mps 748 mmHg 79%
    22:00 -1°C° 0 mm 5 mps 749 mmHg 80%
    23:00 -1°C° 0 mm 5 mps 749 mmHg 82%

    22 February, Saturday

    Time Temperature Precipitation Wind Pressure Humidity
    00:00 -1°C° 0 mm 4 mps 750 mmHg 84%
    01:00 -1°C° 0 mm 4 mps 750 mmHg 86%
    02:00 -1°C° 0 mm 4 mps 750 mmHg 87%
    03:00 -1°C° 0 mm 4 mps 750 mmHg 88%
    04:00 -2°C° 0 mm 4 mps 751 mmHg 89%
    05:00 -2°C° 0 mm 4 mps 751 mmHg 90%
    06:00 -2°C° 0 mm 4 mps 751 mmHg 89%
    07:00 -2°C° 0 mm 4 mps 751 mmHg 89%
    08:00 -2°C° 0 mm 4 mps 751 mmHg 89%
    09:00 -1°C° 0 mm 5 mps 751 mmHg 82%
    10:00 0°C° 0 mm 5 mps 751 mmHg 75%
    11:00 +2°C° 0 mm 6 mps 751 mmHg 68%
    12:00 +2°C° 0 mm 6 mps 750 mmHg 65%
    13:00 +3°C° 0 mm 6 mps 750 mmHg 62%
    14:00 +3°C° 0 mm 7 mps 750 mmHg 59%
    15:00 +3°C° 0 mm 6 mps 749 mmHg 60%
    16:00 +3°C° 0 mm 6 mps 749 mmHg 61%
    17:00 +3°C° 0 mm 5 mps 748 mmHg 62%
    18:00 +3°C° 0 mm 6 mps 748 mmHg 65%
    19:00 +2°C° 0 mm 6 mps 747 mmHg 67%
    20:00 +2°C° 0 mm 7 mps 747 mmHg 69%
    21:00 +2°C° 0.1 mm 7 mps 746 mmHg 71%
    22:00 +1°C° 0.1 mm 8 mps 746 mmHg 73%
    23:00 +1°C° 0.1 mm 9 mps 745 mmHg 75%

    23 February, Sunday

    Time Temperature Precipitation Wind Pressure Humidity
    00:00 +1°C° 0.5 mm 9 mps 745 mmHg 77%
    01:00 +1°C° 0.5 mm 9 mps 744 mmHg 78%
    02:00 +2°C° 0.5 mm 9 mps 743 mmHg 80%
    03:00 +2°C° 0.6 mm 10 mps 743 mmHg 82%
    04:00 +2°C° 0.6 mm 10 mps 742 mmHg 83%
    05:00 +2°C° 0.6 mm 10 mps 741 mmHg 85%
    06:00 +3°C° 0.1 mm 10 mps 741 mmHg 84%
    07:00 +3°C° 0.1 mm 11 mps 741 mmHg 82%
    08:00 +4°C° 0.1 mm 11 mps 740 mmHg 81%
    09:00 +4°C° 0.6 mm 11 mps 740 mmHg 82%
    10:00 +5°C° 0.6 mm 10 mps 740 mmHg 83%
    11:00 +6°C° 0.6 mm 10 mps 740 mmHg 85%
    12:00 +5°C° 0.8 mm 10 mps 740 mmHg 83%
    13:00 +5°C° 0.8 mm 10 mps 740 mmHg 82%
    14:00 +3°C° 0.8 mm 9 mps 740 mmHg 81%
    15:00 +3°C° 0.3 mm 9 mps 740 mmHg 82%
    16:00 +3°C° 0.3 mm 9 mps 740 mmHg 83%
    17:00 +4°C° 0.3 mm 8 mps 740 mmHg 84%
    18:00 +4°C° 0.4 mm 8 mps 740 mmHg 86%
    19:00 +4°C° 0.4 mm 7 mps 740 mmHg 87%
    20:00 +3°C° 0.4 mm 7 mps 740 mmHg 89%
    21:00 +3°C° 0.3 mm 6 mps 740 mmHg 90%
    22:00 +3°C° 0.3 mm 5 mps 740 mmHg 91%
    23:00 +4°C° 0.3 mm 4 mps 739 mmHg 93%
    Show more